248 
ASUS46 KSEW 281410
RWRWA 

WASHINGTON REGIONAL WEATHER ROUNDUP
NATIONAL WEATHER SERVICE SEATTLE WA
600 AM PST TUE FEB 28 2017

NOTE:"FAIR" INDICATES FEW OR NO CLOUDS BELOW 12,000 FEET WITH NO 
SIGNIFICANT WEATHER AND/OR OBSTRUCTIONS TO VISIBILITY.

WAZ507-509-555>559-281500-
SEATTLE, TACOMA, EVERETT, AND VICINITY
  
CITY           SKY/WX    TMP DP  RH WIND       PRES   REMARKS
EVERETT        CLOUDY    31  31 100 S3        29.91R                  
BOEING FIELD   MOCLDY    31  31 100 SE6       29.93R                  
RENTON         PTCLDY    33  33 100 S3        29.93R                  
SEATAC AIRPORT CLOUDY    34  33  96 CALM      29.92R                  
JBLM-MCCHORD   CLOUDY    36  36  99 SW5       29.92R                  
PUYALLUP         N/A    N/A N/A N/A MISG        N/A                   
BREMERTON      MOCLDY    28  28 100 CALM      29.93S                  
JBLM-FT LEWIS  CLOUDY    35  35 100 CALM      29.92R                  
TACOMA NARROWS CLOUDY    35  33  92 S5        29.92R                  
$$
 
WAZ001-503-506-510-514-515-281500-
NORTH INTERIOR
  
CITY           SKY/WX    TMP DP  RH WIND       PRES   REMARKS
BELLINGHAM     CLOUDY    29  28  96 CALM      29.90R FOG              
FRIDAY HARBOR  CLOUDY    33  30  88 NW3       29.91R                  
EASTSOUND      CLOUDY    32  32 100 CALM      29.90R                  
PORT ANGELES   CLOUDY    32  32 100 CALM      29.91R                  
EDIZ HOOK      CLOUDY    36  32  87 SW3       29.92R                  
PORT TOWNSEND  MOCLDY    32  32 100 CALM      29.92R                  
NAS WHIDBEY    MOCLDY    35  30  82 E7        29.95R                  
ARLINGTON      CLOUDY    30  27  86 N5        29.94R                  
BURLINGTON     MOCLDY    30  30 100 CALM      29.92R FOG              
$$
 
WAZ020-022-039-040-504-511-512-281500-
SOUTHWEST INTERIOR
  
CITY           SKY/WX    TMP DP  RH WIND       PRES   REMARKS
SHELTON        CLOUDY    34  32  92 CALM      29.90R                  
OLYMPIA        CLOUDY    35  34  96 SW6       29.92R                  
CHEHALIS       CLOUDY    36  36 100 SW3       29.94R                  
KELSO          CLOUDY    36  35  96 SE5       29.98R                  
VANCOUVER      PTCLDY    36  35  96 CALM      29.98R                  
SCAPPOOSE, OR  CLOUDY    32  32 100 CALM      29.97R                  
PORTLAND, OR   MOCLDY    37  34  89 CALM      29.99R                  
$$
 
WAZ021-516-517-281500-
WASHINGTON COAST
  
CITY           SKY/WX    TMP DP  RH WIND       PRES   REMARKS
FORKS          CLOUDY    32  32 100 CALM      29.90R                  
HOQUIAM        CLOUDY    39  33  79 NW8       29.92R                  
ASTORIA, OR    LGT RAIN  39  33  79 NW5       29.97R                  
$$
 
WAZ019-023-024-040-567>569-281500-
CASCADE MOUNTAINS AND COLUMBIA GORGE
  
CITY           SKY/WX    TMP DP  RH WIND       PRES   REMARKS
STAMPEDE PASS  NOT AVBL                                               
TROUTDALE, OR  CLOUDY    40  36  86 SW8       29.99R                  
THE DALLES, OR CLOUDY    35  31  85 SW8       29.91R                  
$$

WAZ026-027-041>044-520-521-281500-
EAST SLOPES
  
CITY           SKY/WX    TMP DP  RH WIND       PRES   REMARKS
OMAK           CLOUDY    23  14  68 NW7G20    29.81R                  
WENATCHEE      NOT AVBL                                               
ELLENSBURG     PTCLDY    16  13  88 CALM      29.78R                  
YAKIMA         CLEAR     19  15  84 SW6       29.83R                  
SUNNYSIDE ARPT SUNNY     24  23  95 CALM      29.84R                  
$$

WAZ028-034-035-281500-
COLUMBIA BASIN
  
CITY           SKY/WX    TMP DP  RH WIND       PRES   REMARKS
EPHRATA        CLEAR     25  14  63 W5        29.80R                  
MOSES LAKE     CLEAR     21  17  84 W3        29.81R                  
PASCO          PTCLDY    30  26  85 NW5       29.85R                  
HERMISTON, OR  MOCLDY    36  31  82 SW16G24   29.84R                  
$$

WAZ036>038-281500-
NORTHEAST WASHINGTON
  
CITY           SKY/WX    TMP DP  RH WIND       PRES   REMARKS
SPOKANE GEIGER MOCLDY    20  19  96 W14       29.68R WCI   7          
SPOKANE FELTS  CLOUDY    26  22  84 W7        29.71R                  
FAIRCHILD AFB  MOCLDY    20  20 100 W14       29.68R WCI   7          
COEURDALENE,ID FLURRIES  26  23  88 SW14      29.68R WCI  14          
DEER PARK      CLOUDY    23  20  88 S6        29.68R                  
$$

WAZ029>033-281500-
SOUTHEAST WASHINGTON
  
CITY           SKY/WX    TMP DP  RH WIND       PRES   REMARKS
PULLMAN        MOCLDY    26  23  88 W12       29.74R WCI  16          
LEWISTON, ID   CLOUDY    34  27  75 W6        29.77R                  
WALLA WALLA    CLOUDY    36  31  82 W9        29.82R                  
PENDLETON, OR  MIX PCPN  34  30  85 W21       29.81R WCI  22          
$$